Data supplied by UK-AIR on 8/9/2010
All Data GMT hour ending 
Status: R =Ratified P=Provisional,P*=As supplied
,,Bury Roadside,,,,,,,,,,,,,,,,,,,,,,,
Date,time,"Carbon monoxide",status,unit,"PM10 particulate matter (Hourly measured)",status,unit,"Nitric oxide",status,unit,"Nitrogen dioxide",status,unit,"Nitrogen oxides as nitrogen dioxide",status,unit
 
01-01-2008,01:00,0.2,R,mgm-3,31,R,ugm-3 (VCM),16,R,ugm-3,44,R,ugm-3,69,R,ugm-3
01-01-2008,02:00,0.2,R,mgm-3,32,R,ugm-3 (VCM),18,R,ugm-3,44,R,ugm-3,71,R,ugm-3
01-01-2008,03:00,0.2,R,mgm-3,16,R,ugm-3 (VCM),11,R,ugm-3,38,R,ugm-3,55,R,ugm-3
01-01-2008,04:00,0.1,R,mgm-3,13,R,ugm-3 (VCM),9,R,ugm-3,36,R,ugm-3,50,R,ugm-3
01-01-2008,05:00,0.1,R,mgm-3,15,R,ugm-3 (VCM),10,R,ugm-3,36,R,ugm-3,52,R,ugm-3
01-01-2008,06:00,0.1,R,mgm-3,15,R,ugm-3 (VCM),11,R,ugm-3,44,R,ugm-3,61,R,ugm-3
01-01-2008,07:00,0.1,R,mgm-3,18,R,ugm-3 (VCM),16,R,ugm-3,48,R,ugm-3,73,R,ugm-3
01-01-2008,08:00,0.1,R,mgm-3,15,R,ugm-3 (VCM),24,R,ugm-3,52,R,ugm-3,88,R,ugm-3
01-01-2008,09:00,0.2,R,mgm-3,18,R,ugm-3 (VCM),34,R,ugm-3,59,R,ugm-3,111,R,ugm-3
01-01-2008,10:00,0.2,R,mgm-3,22,R,ugm-3 (VCM),36,R,ugm-3,59,R,ugm-3,115,R,ugm-3
01-01-2008,11:00,0.2,R,mgm-3,24,R,ugm-3 (VCM),38,R,ugm-3,63,R,ugm-3,120,R,ugm-3
01-01-2008,12:00,0.5,R,mgm-3,24,R,ugm-3 (VCM),70,R,ugm-3,76,R,ugm-3,183,R,ugm-3
01-01-2008,13:00,0.5,R,mgm-3,25,R,ugm-3 (VCM),51,R,ugm-3,65,R,ugm-3,143,R,ugm-3
01-01-2008,14:00,0.3,R,mgm-3,21,R,ugm-3 (VCM),46,R,ugm-3,65,R,ugm-3,136,R,ugm-3
01-01-2008,15:00,0.5,R,mgm-3,24,R,ugm-3 (VCM),54,R,ugm-3,74,R,ugm-3,157,R,ugm-3
01-01-2008,16:00,0.5,R,mgm-3,21,R,ugm-3 (VCM),50,R,ugm-3,71,R,ugm-3,147,R,ugm-3
01-01-2008,17:00,0.3,R,mgm-3,22,R,ugm-3 (VCM),48,R,ugm-3,71,R,ugm-3,143,R,ugm-3
01-01-2008,18:00,0.5,R,mgm-3,33,R,ugm-3 (VCM),70,R,ugm-3,76,R,ugm-3,183,R,ugm-3
01-01-2008,19:00,0.5,R,mgm-3,30,R,ugm-3 (VCM),68,R,ugm-3,74,R,ugm-3,178,R,ugm-3
01-01-2008,20:00,0.3,R,mgm-3,23,R,ugm-3 (VCM),63,R,ugm-3,78,R,ugm-3,174,R,ugm-3
01-01-2008,21:00,0.5,R,mgm-3,25,R,ugm-3 (VCM),78,R,ugm-3,84,R,ugm-3,202,R,ugm-3
01-01-2008,22:00,0.5,R,mgm-3,19,R,ugm-3 (VCM),73,R,ugm-3,80,R,ugm-3,191,R,ugm-3
01-01-2008,23:00,0.3,R,mgm-3,17,R,ugm-3 (VCM),55,R,ugm-3,71,R,ugm-3,155,R,ugm-3
01-01-2008,24:00,0.3,R,mgm-3,38,R,ugm-3 (VCM),40,R,ugm-3,59,R,ugm-3,120,R,ugm-3
02-01-2008,01:00,0.3,R,mgm-3,16,R,ugm-3 (VCM),39,R,ugm-3,53,R,ugm-3,113,R,ugm-3
02-01-2008,02:00,0.2,R,mgm-3,17,R,ugm-3 (VCM),24,R,ugm-3,46,R,ugm-3,82,R,ugm-3
02-01-2008,03:00,0.2,R,mgm-3,16,R,ugm-3 (VCM),29,R,ugm-3,55,R,ugm-3,99,R,ugm-3
02-01-2008,04:00,0.3,R,mgm-3,25,R,ugm-3 (VCM),44,R,ugm-3,55,R,ugm-3,122,R,ugm-3
02-01-2008,05:00,0.3,R,mgm-3,22,R,ugm-3 (VCM),49,R,ugm-3,57,R,ugm-3,132,R,ugm-3
02-01-2008,06:00,0.3,R,mgm-3,18,R,ugm-3 (VCM),103,R,ugm-3,67,R,ugm-3,223,R,ugm-3
02-01-2008,07:00,0.5,R,mgm-3,20,R,ugm-3 (VCM),146,R,ugm-3,65,R,ugm-3,288,R,ugm-3
02-01-2008,08:00,0.5,R,mgm-3,30,R,ugm-3 (VCM),146,R,ugm-3,80,R,ugm-3,304,R,ugm-3
02-01-2008,09:00,0.5,R,mgm-3,35,R,ugm-3 (VCM),139,R,ugm-3,73,R,ugm-3,285,R,ugm-3
02-01-2008,10:00,0.3,R,mgm-3,33,R,ugm-3 (VCM),125,R,ugm-3,65,R,ugm-3,256,R,ugm-3
02-01-2008,11:00,0.3,R,mgm-3,35,R,ugm-3 (VCM),146,R,ugm-3,71,R,ugm-3,294,R,ugm-3
02-01-2008,12:00,0.2,R,mgm-3,39,R,ugm-3 (VCM),151,R,ugm-3,73,R,ugm-3,304,R,ugm-3
02-01-2008,13:00,0.3,R,mgm-3,36,R,ugm-3 (VCM),136,R,ugm-3,73,R,ugm-3,281,R,ugm-3
02-01-2008,14:00,0.3,R,mgm-3,38,R,ugm-3 (VCM),126,R,ugm-3,73,R,ugm-3,265,R,ugm-3
02-01-2008,15:00,0.3,R,mgm-3,36,R,ugm-3 (VCM),116,R,ugm-3,73,R,ugm-3,250,R,ugm-3
02-01-2008,16:00,0.2,R,mgm-3,41,R,ugm-3 (VCM),104,R,ugm-3,74,R,ugm-3,233,R,ugm-3
02-01-2008,17:00,0.2,R,mgm-3,31,R,ugm-3 (VCM),86,R,ugm-3,80,R,ugm-3,212,R,ugm-3
02-01-2008,18:00,0.2,R,mgm-3,26,R,ugm-3 (VCM),79,R,ugm-3,82,R,ugm-3,202,R,ugm-3
02-01-2008,19:00,0.2,R,mgm-3,20,R,ugm-3 (VCM),58,R,ugm-3,63,R,ugm-3,151,R,ugm-3
02-01-2008,20:00,0.2,R,mgm-3,21,R,ugm-3 (VCM),44,R,ugm-3,55,R,ugm-3,122,R,ugm-3
02-01-2008,21:00,0.1,R,mgm-3,15,R,ugm-3 (VCM),43,R,ugm-3,55,R,ugm-3,120,R,ugm-3
02-01-2008,22:00,0.1,R,mgm-3,13,R,ugm-3 (VCM),34,R,ugm-3,46,R,ugm-3,97,R,ugm-3
02-01-2008,23:00,0.2,R,mgm-3,27,R,ugm-3 (VCM),35,R,ugm-3,46,R,ugm-3,99,R,ugm-3
02-01-2008,24:00,0.1,R,mgm-3,21,R,ugm-3 (VCM),30,R,ugm-3,42,R,ugm-3,88,R,ugm-3
03-01-2008,01:00,0.2,R,mgm-3,10,R,ugm-3 (VCM),28,R,ugm-3,38,R,ugm-3,80,R,ugm-3
03-01-2008,02:00,0.2,R,mgm-3,8,R,ugm-3 (VCM),23,R,ugm-3,38,R,ugm-3,73,R,ugm-3
03-01-2008,03:00,0.2,R,mgm-3,11,R,ugm-3 (VCM),25,R,ugm-3,38,R,ugm-3,76,R,ugm-3
03-01-2008,04:00,0.2,R,mgm-3,7,R,ugm-3 (VCM),28,R,ugm-3,38,R,ugm-3,80,R,ugm-3
03-01-2008,05:00,0.2,R,mgm-3,13,R,ugm-3 (VCM),44,R,ugm-3,48,R,ugm-3,115,R,ugm-3
03-01-2008,06:00,0.2,R,mgm-3,20,R,ugm-3 (VCM),78,R,ugm-3,57,R,ugm-3,176,R,ugm-3
03-01-2008,07:00,0.3,R,mgm-3,30,R,ugm-3 (VCM),109,R,ugm-3,73,R,ugm-3,239,R,ugm-3
03-01-2008,08:00,0.3,R,mgm-3,30,R,ugm-3 (VCM),114,R,ugm-3,82,R,ugm-3,256,R,ugm-3
03-01-2008,09:00,0.5,R,mgm-3,23,R,ugm-3 (VCM),120,R,ugm-3,84,R,ugm-3,267,R,ugm-3
03-01-2008,10:00,0.5,R,mgm-3,33,R,ugm-3 (VCM),140,R,ugm-3,88,R,ugm-3,302,R,ugm-3
03-01-2008,11:00,0.5,R,mgm-3,42,R,ugm-3 (VCM),164,R,ugm-3,90,R,ugm-3,340,R,ugm-3
03-01-2008,12:00,,,,,,,,,,,,,,,
03-01-2008,13:00,,,,,,,,,,,,,,,
03-01-2008,14:00,0.2,R,mgm-3,,,,185,R,ugm-3,101,R,ugm-3,384,R,ugm-3
03-01-2008,15:00,0.2,R,mgm-3,,,,140,R,ugm-3,86,R,ugm-3,300,R,ugm-3
03-01-2008,16:00,0.2,R,mgm-3,,,,123,R,ugm-3,84,R,ugm-3,271,R,ugm-3
03-01-2008,17:00,0.2,R,mgm-3,,,,138,R,ugm-3,94,R,ugm-3,304,R,ugm-3
03-01-2008,18:00,0.2,R,mgm-3,,,,113,R,ugm-3,86,R,ugm-3,258,R,ugm-3
03-01-2008,19:00,0.2,R,mgm-3,,,,99,R,ugm-3,76,R,ugm-3,227,R,ugm-3
03-01-2008,20:00,0.2,R,mgm-3,73,R,ugm-3 (VCM),90,R,ugm-3,69,R,ugm-3,206,R,ugm-3
03-01-2008,21:00,0.2,R,mgm-3,79,R,ugm-3 (VCM),76,R,ugm-3,65,R,ugm-3,181,R,ugm-3
03-01-2008,22:00,0.1,R,mgm-3,68,R,ugm-3 (VCM),63,R,ugm-3,53,R,ugm-3,149,R,ugm-3
03-01-2008,23:00,0.2,R,mgm-3,62,R,ugm-3 (VCM),60,R,ugm-3,55,R,ugm-3,147,R,ugm-3
03-01-2008,24:00,0.2,R,mgm-3,54,R,ugm-3 (VCM),65,R,ugm-3,52,R,ugm-3,151,R,ugm-3
04-01-2008,01:00,0.1,R,mgm-3,45,R,ugm-3 (VCM),71,R,ugm-3,52,R,ugm-3,160,R,ugm-3
04-01-2008,02:00,0.3,R,mgm-3,42,R,ugm-3 (VCM),63,R,ugm-3,52,R,ugm-3,147,R,ugm-3
04-01-2008,03:00,0.2,R,mgm-3,48,R,ugm-3 (VCM),63,R,ugm-3,50,R,ugm-3,145,R,ugm-3
04-01-2008,04:00,0.2,R,mgm-3,55,R,ugm-3 (VCM),93,R,ugm-3,57,R,ugm-3,199,R,ugm-3
04-01-2008,05:00,0.3,R,mgm-3,54,R,ugm-3 (VCM),80,R,ugm-3,50,R,ugm-3,172,R,ugm-3
04-01-2008,06:00,0.3,R,mgm-3,43,R,ugm-3 (VCM),110,R,ugm-3,57,R,ugm-3,225,R,ugm-3
04-01-2008,07:00,0.3,R,mgm-3,46,R,ugm-3 (VCM),153,R,ugm-3,69,R,ugm-3,302,R,ugm-3
04-01-2008,08:00,0.3,R,mgm-3,47,R,ugm-3 (VCM),173,R,ugm-3,80,R,ugm-3,344,R,ugm-3
04-01-2008,09:00,0.5,R,mgm-3,40,R,ugm-3 (VCM),164,R,ugm-3,80,R,ugm-3,330,R,ugm-3
04-01-2008,10:00,0.5,R,mgm-3,39,R,ugm-3 (VCM),215,R,ugm-3,88,R,ugm-3,416,R,ugm-3
04-01-2008,11:00,0.5,R,mgm-3,44,R,ugm-3 (VCM),218,R,ugm-3,88,R,ugm-3,420,R,ugm-3
04-01-2008,12:00,0.6,R,mgm-3,49,R,ugm-3 (VCM),251,R,ugm-3,101,R,ugm-3,485,R,ugm-3
04-01-2008,13:00,0.7,R,mgm-3,55,R,ugm-3 (VCM),275,R,ugm-3,107,R,ugm-3,527,R,ugm-3
04-01-2008,14:00,0.7,R,mgm-3,50,R,ugm-3 (VCM),235,R,ugm-3,109,R,ugm-3,468,R,ugm-3
04-01-2008,15:00,0.6,R,mgm-3,37,R,ugm-3 (VCM),193,R,ugm-3,103,R,ugm-3,397,R,ugm-3
04-01-2008,16:00,0.6,R,mgm-3,35,R,ugm-3 (VCM),178,R,ugm-3,99,R,ugm-3,371,R,ugm-3
04-01-2008,17:00,0.6,R,mgm-3,32,R,ugm-3 (VCM),126,R,ugm-3,84,R,ugm-3,277,R,ugm-3
04-01-2008,18:00,0.6,R,mgm-3,44,R,ugm-3 (VCM),106,R,ugm-3,82,R,ugm-3,244,R,ugm-3
04-01-2008,19:00,0.6,R,mgm-3,37,R,ugm-3 (VCM),84,R,ugm-3,76,R,ugm-3,204,R,ugm-3
04-01-2008,20:00,0.5,R,mgm-3,26,R,ugm-3 (VCM),60,R,ugm-3,67,R,ugm-3,159,R,ugm-3
04-01-2008,21:00,0.5,R,mgm-3,25,R,ugm-3 (VCM),46,R,ugm-3,59,R,ugm-3,130,R,ugm-3
04-01-2008,22:00,0.3,R,mgm-3,18,R,ugm-3 (VCM),28,R,ugm-3,48,R,ugm-3,90,R,ugm-3
04-01-2008,23:00,0.3,R,mgm-3,5,R,ugm-3 (VCM),26,R,ugm-3,48,R,ugm-3,88,R,ugm-3
04-01-2008,24:00,0.3,R,mgm-3,6,R,ugm-3 (VCM),28,R,ugm-3,53,R,ugm-3,96,R,ugm-3
05-01-2008,01:00,0.2,R,mgm-3,10,R,ugm-3 (VCM),24,R,ugm-3,52,R,ugm-3,88,R,ugm-3
05-01-2008,02:00,0.1,R,mgm-3,12,R,ugm-3 (VCM),23,R,ugm-3,52,R,ugm-3,86,R,ugm-3
05-01-2008,03:00,0.1,R,mgm-3,10,R,ugm-3 (VCM),20,R,ugm-3,46,R,ugm-3,76,R,ugm-3
05-01-2008,04:00,0.1,R,mgm-3,8,R,ugm-3 (VCM),34,R,ugm-3,55,R,ugm-3,107,R,ugm-3
05-01-2008,05:00,0.1,R,mgm-3,14,R,ugm-3 (VCM),25,R,ugm-3,53,R,ugm-3,92,R,ugm-3
05-01-2008,06:00,0.1,R,mgm-3,15,R,ugm-3 (VCM),40,R,ugm-3,59,R,ugm-3,120,R,ugm-3
05-01-2008,07:00,0.1,R,mgm-3,14,R,ugm-3 (VCM),45,R,ugm-3,65,R,ugm-3,134,R,ugm-3
05-01-2008,08:00,0.1,R,mgm-3,23,R,ugm-3 (VCM),40,R,ugm-3,67,R,ugm-3,128,R,ugm-3
05-01-2008,09:00,0.2,R,mgm-3,22,R,ugm-3 (VCM),58,R,ugm-3,78,R,ugm-3,166,R,ugm-3
05-01-2008,10:00,0.2,R,mgm-3,18,R,ugm-3 (VCM),60,R,ugm-3,82,R,ugm-3,174,R,ugm-3
05-01-2008,11:00,0.2,R,mgm-3,19,R,ugm-3 (VCM),55,R,ugm-3,78,R,ugm-3,162,R,ugm-3
05-01-2008,12:00,0.1,R,mgm-3,19,R,ugm-3 (VCM),50,R,ugm-3,71,R,ugm-3,147,R,ugm-3
05-01-2008,13:00,0.2,R,mgm-3,30,R,ugm-3 (VCM),50,R,ugm-3,74,R,ugm-3,151,R,ugm-3
05-01-2008,14:00,0.2,R,mgm-3,23,R,ugm-3 (VCM),40,R,ugm-3,67,R,ugm-3,128,R,ugm-3
05-01-2008,15:00,0.2,R,mgm-3,15,R,ugm-3 (VCM),30,R,ugm-3,61,R,ugm-3,107,R,ugm-3
05-01-2008,16:00,0.2,R,mgm-3,14,R,ugm-3 (VCM),28,R,ugm-3,63,R,ugm-3,105,R,ugm-3
05-01-2008,17:00,0.2,R,mgm-3,19,R,ugm-3 (VCM),36,R,ugm-3,76,R,ugm-3,132,R,ugm-3
05-01-2008,18:00,0.2,R,mgm-3,22,R,ugm-3 (VCM),43,R,ugm-3,78,R,ugm-3,143,R,ugm-3
05-01-2008,19:00,0.2,R,mgm-3,24,R,ugm-3 (VCM),49,R,ugm-3,88,R,ugm-3,162,R,ugm-3
05-01-2008,20:00,0.3,R,mgm-3,20,R,ugm-3 (VCM),54,R,ugm-3,88,R,ugm-3,170,R,ugm-3
05-01-2008,21:00,0.2,R,mgm-3,21,R,ugm-3 (VCM),30,R,ugm-3,73,R,ugm-3,118,R,ugm-3
05-01-2008,22:00,0.1,R,mgm-3,25,R,ugm-3 (VCM),18,R,ugm-3,55,R,ugm-3,82,R,ugm-3
05-01-2008,23:00,0.1,R,mgm-3,23,R,ugm-3 (VCM),21,R,ugm-3,57,R,ugm-3,90,R,ugm-3
05-01-2008,24:00,0.1,R,mgm-3,14,R,ugm-3 (VCM),15,R,ugm-3,48,R,ugm-3,71,R,ugm-3
06-01-2008,01:00,0.2,R,mgm-3,16,R,ugm-3 (VCM),13,R,ugm-3,40,R,ugm-3,59,R,ugm-3
06-01-2008,02:00,0.1,R,mgm-3,19,R,ugm-3 (VCM),8,R,ugm-3,34,R,ugm-3,46,R,ugm-3
06-01-2008,03:00,0.1,R,mgm-3,11,R,ugm-3 (VCM),4,R,ugm-3,23,R,ugm-3,29,R,ugm-3
06-01-2008,04:00,0.1,R,mgm-3,13,R,ugm-3 (VCM),4,R,ugm-3,19,R,ugm-3,25,R,ugm-3
06-01-2008,05:00,0.1,R,mgm-3,19,R,ugm-3 (VCM),6,R,ugm-3,25,R,ugm-3,34,R,ugm-3
06-01-2008,06:00,0.1,R,mgm-3,14,R,ugm-3 (VCM),9,R,ugm-3,32,R,ugm-3,46,R,ugm-3
06-01-2008,07:00,0.1,R,mgm-3,13,R,ugm-3 (VCM),30,R,ugm-3,55,R,ugm-3,101,R,ugm-3
06-01-2008,08:00,0.1,R,mgm-3,10,R,ugm-3 (VCM),30,R,ugm-3,57,R,ugm-3,103,R,ugm-3
06-01-2008,09:00,0.1,R,mgm-3,7,R,ugm-3 (VCM),38,R,ugm-3,67,R,ugm-3,124,R,ugm-3
06-01-2008,10:00,0.2,R,mgm-3,14,R,ugm-3 (VCM),53,R,ugm-3,78,R,ugm-3,159,R,ugm-3
06-01-2008,11:00,0.2,R,mgm-3,16,R,ugm-3 (VCM),61,R,ugm-3,78,R,ugm-3,172,R,ugm-3
06-01-2008,12:00,0.3,R,mgm-3,30,R,ugm-3 (VCM),56,R,ugm-3,74,R,ugm-3,160,R,ugm-3
06-01-2008,13:00,0.3,R,mgm-3,19,R,ugm-3 (VCM),51,R,ugm-3,73,R,ugm-3,151,R,ugm-3
06-01-2008,14:00,0.3,R,mgm-3,59,R,ugm-3 (VCM),54,R,ugm-3,78,R,ugm-3,160,R,ugm-3
06-01-2008,15:00,0.5,R,mgm-3,37,R,ugm-3 (VCM),60,R,ugm-3,80,R,ugm-3,172,R,ugm-3
06-01-2008,16:00,0.6,R,mgm-3,31,R,ugm-3 (VCM),91,R,ugm-3,97,R,ugm-3,237,R,ugm-3
06-01-2008,17:00,0.6,R,mgm-3,33,R,ugm-3 (VCM),115,R,ugm-3,109,R,ugm-3,285,R,ugm-3
06-01-2008,18:00,0.5,R,mgm-3,35,R,ugm-3 (VCM),86,R,ugm-3,101,R,ugm-3,233,R,ugm-3
06-01-2008,19:00,0.5,R,mgm-3,32,R,ugm-3 (VCM),85,R,ugm-3,97,R,ugm-3,227,R,ugm-3
06-01-2008,20:00,0.5,R,mgm-3,42,R,ugm-3 (VCM),64,R,ugm-3,80,R,ugm-3,178,R,ugm-3
06-01-2008,21:00,0.3,R,mgm-3,33,R,ugm-3 (VCM),46,R,ugm-3,61,R,ugm-3,132,R,ugm-3
06-01-2008,22:00,0.2,R,mgm-3,19,R,ugm-3 (VCM),30,R,ugm-3,48,R,ugm-3,94,R,ugm-3
06-01-2008,23:00,0.2,R,mgm-3,14,R,ugm-3 (VCM),18,R,ugm-3,38,R,ugm-3,65,R,ugm-3
06-01-2008,24:00,0.2,R,mgm-3,12,R,ugm-3 (VCM),11,R,ugm-3,31,R,ugm-3,48,R,ugm-3
07-01-2008,01:00,0.2,R,mgm-3,7,R,ugm-3 (VCM),16,R,ugm-3,42,R,ugm-3,67,R,ugm-3
07-01-2008,02:00,0.2,R,mgm-3,10,R,ugm-3 (VCM),11,R,ugm-3,40,R,ugm-3,57,R,ugm-3
07-01-2008,03:00,0.1,R,mgm-3,7,R,ugm-3 (VCM),6,R,ugm-3,29,R,ugm-3,38,R,ugm-3
07-01-2008,04:00,0.1,R,mgm-3,19,R,ugm-3 (VCM),8,R,ugm-3,21,R,ugm-3,32,R,ugm-3
07-01-2008,05:00,0.1,R,mgm-3,8,R,ugm-3 (VCM),14,R,ugm-3,25,R,ugm-3,46,R,ugm-3
07-01-2008,06:00,0.1,R,mgm-3,14,R,ugm-3 (VCM),23,R,ugm-3,36,R,ugm-3,71,R,ugm-3
07-01-2008,07:00,0.1,R,mgm-3,19,R,ugm-3 (VCM),29,R,ugm-3,42,R,ugm-3,86,R,ugm-3
07-01-2008,08:00,0.1,R,mgm-3,11,R,ugm-3 (VCM),25,R,ugm-3,36,R,ugm-3,74,R,ugm-3
07-01-2008,09:00,0.2,R,mgm-3,11,R,ugm-3 (VCM),25,R,ugm-3,38,R,ugm-3,76,R,ugm-3
07-01-2008,10:00,0.2,R,mgm-3,11,R,ugm-3 (VCM),35,R,ugm-3,50,R,ugm-3,103,R,ugm-3
07-01-2008,11:00,0.1,R,mgm-3,9,R,ugm-3 (VCM),40,R,ugm-3,55,R,ugm-3,117,R,ugm-3
07-01-2008,12:00,0.1,R,mgm-3,20,R,ugm-3 (VCM),45,R,ugm-3,59,R,ugm-3,128,R,ugm-3
07-01-2008,13:00,0.2,R,mgm-3,26,R,ugm-3 (VCM),90,R,ugm-3,90,R,ugm-3,227,R,ugm-3
07-01-2008,14:00,0.2,R,mgm-3,21,R,ugm-3 (VCM),64,R,ugm-3,76,R,ugm-3,174,R,ugm-3
07-01-2008,15:00,0.2,R,mgm-3,19,R,ugm-3 (VCM),64,R,ugm-3,71,R,ugm-3,168,R,ugm-3
07-01-2008,16:00,0.2,R,mgm-3,10,R,ugm-3 (VCM),56,R,ugm-3,73,R,ugm-3,159,R,ugm-3
07-01-2008,17:00,0.2,R,mgm-3,14,R,ugm-3 (VCM),41,R,ugm-3,61,R,ugm-3,124,R,ugm-3
07-01-2008,18:00,0.2,R,mgm-3,14,R,ugm-3 (VCM),41,R,ugm-3,69,R,ugm-3,132,R,ugm-3
07-01-2008,19:00,0.2,R,mgm-3,20,R,ugm-3 (VCM),43,R,ugm-3,73,R,ugm-3,138,R,ugm-3
07-01-2008,20:00,0.2,R,mgm-3,18,R,ugm-3 (VCM),70,R,ugm-3,82,R,ugm-3,189,R,ugm-3
07-01-2008,21:00,0.2,R,mgm-3,25,R,ugm-3 (VCM),66,R,ugm-3,80,R,ugm-3,181,R,ugm-3
07-01-2008,22:00,0.2,R,mgm-3,28,R,ugm-3 (VCM),54,R,ugm-3,71,R,ugm-3,153,R,ugm-3
07-01-2008,23:00,0.1,R,mgm-3,19,R,ugm-3 (VCM),41,R,ugm-3,59,R,ugm-3,122,R,ugm-3
07-01-2008,24:00,0.1,R,mgm-3,17,R,ugm-3 (VCM),23,R,ugm-3,44,R,ugm-3,78,R,ugm-3
08-01-2008,01:00,0.1,R,mgm-3,12,R,ugm-3 (VCM),30,R,ugm-3,48,R,ugm-3,94,R,ugm-3
08-01-2008,02:00,0.1,R,mgm-3,11,R,ugm-3 (VCM),34,R,ugm-3,55,R,ugm-3,107,R,ugm-3
08-01-2008,03:00,0.1,R,mgm-3,10,R,ugm-3 (VCM),41,R,ugm-3,53,R,ugm-3,117,R,ugm-3
08-01-2008,04:00,0.1,R,mgm-3,9,R,ugm-3 (VCM),41,R,ugm-3,57,R,ugm-3,120,R,ugm-3
08-01-2008,05:00,0.1,R,mgm-3,10,R,ugm-3 (VCM),74,R,ugm-3,67,R,ugm-3,180,R,ugm-3
08-01-2008,06:00,0.1,R,mgm-3,14,R,ugm-3 (VCM),146,R,ugm-3,88,R,ugm-3,311,R,ugm-3
08-01-2008,07:00,0.2,R,mgm-3,28,R,ugm-3 (VCM),176,R,ugm-3,107,R,ugm-3,376,R,ugm-3
08-01-2008,08:00,0.5,R,mgm-3,35,R,ugm-3 (VCM),234,R,ugm-3,136,R,ugm-3,493,R,ugm-3
08-01-2008,09:00,0.6,R,mgm-3,22,R,ugm-3 (VCM),188,R,ugm-3,122,R,ugm-3,409,R,ugm-3
08-01-2008,10:00,0.5,R,mgm-3,27,R,ugm-3 (VCM),184,R,ugm-3,122,R,ugm-3,403,R,ugm-3
08-01-2008,11:00,0.5,R,mgm-3,38,R,ugm-3 (VCM),233,R,ugm-3,124,R,ugm-3,479,R,ugm-3
08-01-2008,12:00,0.3,R,mgm-3,26,R,ugm-3 (VCM),173,R,ugm-3,105,R,ugm-3,369,R,ugm-3
08-01-2008,13:00,0.2,R,mgm-3,19,R,ugm-3 (VCM),114,R,ugm-3,86,R,ugm-3,260,R,ugm-3
08-01-2008,14:00,0.2,R,mgm-3,17,R,ugm-3 (VCM),105,R,ugm-3,86,R,ugm-3,246,R,ugm-3
08-01-2008,15:00,0.3,R,mgm-3,19,R,ugm-3 (VCM),119,R,ugm-3,94,R,ugm-3,275,R,ugm-3
08-01-2008,16:00,0.5,R,mgm-3,19,R,ugm-3 (VCM),135,R,ugm-3,103,R,ugm-3,309,R,ugm-3
08-01-2008,17:00,0.5,R,mgm-3,15,R,ugm-3 (VCM),110,R,ugm-3,101,R,ugm-3,269,R,ugm-3
08-01-2008,18:00,0.5,R,mgm-3,16,R,ugm-3 (VCM),71,R,ugm-3,84,R,ugm-3,193,R,ugm-3
08-01-2008,19:00,0.3,R,mgm-3,16,R,ugm-3 (VCM),51,R,ugm-3,69,R,ugm-3,147,R,ugm-3
08-01-2008,20:00,0.3,R,mgm-3,17,R,ugm-3 (VCM),29,R,ugm-3,46,R,ugm-3,90,R,ugm-3
08-01-2008,21:00,0.2,R,mgm-3,,,,26,R,ugm-3,50,R,ugm-3,90,R,ugm-3
08-01-2008,22:00,0.2,R,mgm-3,2,R,ugm-3 (VCM),38,R,ugm-3,65,R,ugm-3,122,R,ugm-3
08-01-2008,23:00,0.2,R,mgm-3,,,,19,R,ugm-3,42,R,ugm-3,71,R,ugm-3
08-01-2008,24:00,0.2,R,mgm-3,0,R,ugm-3 (VCM),20,R,ugm-3,40,R,ugm-3,71,R,ugm-3
09-01-2008,01:00,0.1,R,mgm-3,7,R,ugm-3 (VCM),29,R,ugm-3,42,R,ugm-3,86,R,ugm-3
09-01-2008,02:00,0.1,R,mgm-3,4,R,ugm-3 (VCM),18,R,ugm-3,38,R,ugm-3,65,R,ugm-3
09-01-2008,03:00,0.1,R,mgm-3,6,R,ugm-3 (VCM),16,R,ugm-3,38,R,ugm-3,63,R,ugm-3
09-01-2008,04:00,0.1,R,mgm-3,1,R,ugm-3 (VCM),19,R,ugm-3,36,R,ugm-3,65,R,ugm-3
09-01-2008,05:00,0.1,R,mgm-3,9,R,ugm-3 (VCM),39,R,ugm-3,52,R,ugm-3,111,R,ugm-3
09-01-2008,06:00,0.1,R,mgm-3,8,R,ugm-3 (VCM),73,R,ugm-3,67,R,ugm-3,178,R,ugm-3
09-01-2008,07:00,0.2,R,mgm-3,9,R,ugm-3 (VCM),116,R,ugm-3,90,R,ugm-3,267,R,ugm-3
09-01-2008,08:00,0.2,R,mgm-3,13,R,ugm-3 (VCM),116,R,ugm-3,99,R,ugm-3,277,R,ugm-3
09-01-2008,09:00,0.3,R,mgm-3,21,R,ugm-3 (VCM),166,R,ugm-3,118,R,ugm-3,372,R,ugm-3
09-01-2008,10:00,0.2,R,mgm-3,20,R,ugm-3 (VCM),136,R,ugm-3,107,R,ugm-3,315,R,ugm-3
09-01-2008,11:00,0.2,R,mgm-3,23,R,ugm-3 (VCM),118,R,ugm-3,96,R,ugm-3,275,R,ugm-3
09-01-2008,12:00,0.2,R,mgm-3,26,R,ugm-3 (VCM),125,R,ugm-3,96,R,ugm-3,287,R,ugm-3
09-01-2008,13:00,0.2,R,mgm-3,38,R,ugm-3 (VCM),129,R,ugm-3,99,R,ugm-3,296,R,ugm-3
09-01-2008,14:00,0.2,R,mgm-3,35,R,ugm-3 (VCM),140,R,ugm-3,103,R,ugm-3,317,R,ugm-3
09-01-2008,15:00,0.2,R,mgm-3,12,R,ugm-3 (VCM),129,R,ugm-3,107,R,ugm-3,304,R,ugm-3
09-01-2008,16:00,0.2,R,mgm-3,28,R,ugm-3 (VCM),144,R,ugm-3,115,R,ugm-3,334,R,ugm-3
09-01-2008,17:00,0.3,R,mgm-3,29,R,ugm-3 (VCM),131,R,ugm-3,117,R,ugm-3,317,R,ugm-3
09-01-2008,18:00,0.3,R,mgm-3,24,R,ugm-3 (VCM),98,R,ugm-3,99,R,ugm-3,248,R,ugm-3
09-01-2008,19:00,0.3,R,mgm-3,25,R,ugm-3 (VCM),96,R,ugm-3,96,R,ugm-3,243,R,ugm-3
09-01-2008,20:00,0.5,R,mgm-3,26,R,ugm-3 (VCM),140,R,ugm-3,107,R,ugm-3,321,R,ugm-3
09-01-2008,21:00,0.3,R,mgm-3,21,R,ugm-3 (VCM),75,R,ugm-3,78,R,ugm-3,193,R,ugm-3
09-01-2008,22:00,0.2,R,mgm-3,11,R,ugm-3 (VCM),30,R,ugm-3,44,R,ugm-3,90,R,ugm-3
09-01-2008,23:00,0.2,R,mgm-3,12,R,ugm-3 (VCM),21,R,ugm-3,34,R,ugm-3,67,R,ugm-3
09-01-2008,24:00,0.2,R,mgm-3,12,R,ugm-3 (VCM),26,R,ugm-3,42,R,ugm-3,82,R,ugm-3
10-01-2008,01:00,0.2,R,mgm-3,13,R,ugm-3 (VCM),16,R,ugm-3,34,R,ugm-3,59,R,ugm-3
10-01-2008,02:00,0.2,R,mgm-3,7,R,ugm-3 (VCM),18,R,ugm-3,38,R,ugm-3,65,R,ugm-3
10-01-2008,03:00,0.2,R,mgm-3,2,R,ugm-3 (VCM),19,R,ugm-3,44,R,ugm-3,73,R,ugm-3
10-01-2008,04:00,0.2,R,mgm-3,7,R,ugm-3 (VCM),28,R,ugm-3,48,R,ugm-3,90,R,ugm-3
10-01-2008,05:00,0.2,R,mgm-3,5,R,ugm-3 (VCM),34,R,ugm-3,48,R,ugm-3,99,R,ugm-3
10-01-2008,06:00,0.2,R,mgm-3,7,R,ugm-3 (VCM),51,R,ugm-3,57,R,ugm-3,136,R,ugm-3
10-01-2008,07:00,0.2,R,mgm-3,15,R,ugm-3 (VCM),86,R,ugm-3,78,R,ugm-3,210,R,ugm-3
10-01-2008,08:00,0.3,R,mgm-3,13,R,ugm-3 (VCM),95,R,ugm-3,90,R,ugm-3,235,R,ugm-3
10-01-2008,09:00,0.3,R,mgm-3,12,R,ugm-3 (VCM),68,R,ugm-3,78,R,ugm-3,181,R,ugm-3
10-01-2008,10:00,0.3,R,mgm-3,12,R,ugm-3 (VCM),98,R,ugm-3,88,R,ugm-3,237,R,ugm-3
10-01-2008,11:00,0.3,R,mgm-3,18,R,ugm-3 (VCM),90,R,ugm-3,82,R,ugm-3,220,R,ugm-3
10-01-2008,12:00,0.3,R,mgm-3,21,R,ugm-3 (VCM),90,R,ugm-3,78,R,ugm-3,216,R,ugm-3
10-01-2008,13:00,0.3,R,mgm-3,11,R,ugm-3 (VCM),66,R,ugm-3,71,R,ugm-3,172,R,ugm-3
10-01-2008,14:00,,,,,,,,,,,,,,,
10-01-2008,15:00,,,,,,,,,,,,,,,
10-01-2008,16:00,,,,,,,,,,,,,,,
10-01-2008,17:00,,,,23,R,ugm-3 (VCM),184,R,ugm-3,134,R,ugm-3,414,R,ugm-3
10-01-2008,18:00,0.5,R,mgm-3,42,R,ugm-3 (VCM),201,R,ugm-3,143,R,ugm-3,451,R,ugm-3
10-01-2008,19:00,0.6,R,mgm-3,34,R,ugm-3 (VCM),160,R,ugm-3,124,R,ugm-3,369,R,ugm-3
10-01-2008,20:00,0.6,R,mgm-3,28,R,ugm-3 (VCM),119,R,ugm-3,101,R,ugm-3,283,R,ugm-3
10-01-2008,21:00,0.6,R,mgm-3,19,R,ugm-3 (VCM),128,R,ugm-3,97,R,ugm-3,292,R,ugm-3
10-01-2008,22:00,0.6,R,mgm-3,23,R,ugm-3 (VCM),134,R,ugm-3,97,R,ugm-3,302,R,ugm-3
10-01-2008,23:00,0.6,R,mgm-3,21,R,ugm-3 (VCM),116,R,ugm-3,90,R,ugm-3,267,R,ugm-3
10-01-2008,24:00,0.5,R,mgm-3,21,R,ugm-3 (VCM),120,R,ugm-3,84,R,ugm-3,267,R,ugm-3
11-01-2008,01:00,0.3,R,mgm-3,18,R,ugm-3 (VCM),130,R,ugm-3,82,R,ugm-3,281,R,ugm-3
11-01-2008,02:00,0.3,R,mgm-3,21,R,ugm-3 (VCM),136,R,ugm-3,78,R,ugm-3,287,R,ugm-3
11-01-2008,03:00,0.3,R,mgm-3,20,R,ugm-3 (VCM),185,R,ugm-3,78,R,ugm-3,361,R,ugm-3
11-01-2008,04:00,0.2,R,mgm-3,12,R,ugm-3 (VCM),128,R,ugm-3,69,R,ugm-3,264,R,ugm-3
11-01-2008,05:00,0.2,R,mgm-3,14,R,ugm-3 (VCM),101,R,ugm-3,65,R,ugm-3,220,R,ugm-3
11-01-2008,06:00,0.3,R,mgm-3,18,R,ugm-3 (VCM),149,R,ugm-3,74,R,ugm-3,302,R,ugm-3
11-01-2008,07:00,0.6,R,mgm-3,32,R,ugm-3 (VCM),304,R,ugm-3,120,R,ugm-3,584,R,ugm-3
11-01-2008,08:00,0.8,R,mgm-3,40,R,ugm-3 (VCM),286,R,ugm-3,139,R,ugm-3,577,R,ugm-3
11-01-2008,09:00,0.7,R,mgm-3,24,R,ugm-3 (VCM),126,R,ugm-3,96,R,ugm-3,288,R,ugm-3
11-01-2008,10:00,0.5,R,mgm-3,30,R,ugm-3 (VCM),121,R,ugm-3,99,R,ugm-3,285,R,ugm-3
11-01-2008,11:00,0.5,R,mgm-3,25,R,ugm-3 (VCM),120,R,ugm-3,99,R,ugm-3,283,R,ugm-3
11-01-2008,12:00,0.5,R,mgm-3,26,R,ugm-3 (VCM),126,R,ugm-3,101,R,ugm-3,294,R,ugm-3
11-01-2008,13:00,0.3,R,mgm-3,28,R,ugm-3 (VCM),121,R,ugm-3,96,R,ugm-3,281,R,ugm-3
11-01-2008,14:00,0.3,R,mgm-3,25,R,ugm-3 (VCM),69,R,ugm-3,76,R,ugm-3,181,R,ugm-3
11-01-2008,15:00,0.3,R,mgm-3,23,R,ugm-3 (VCM),63,R,ugm-3,74,R,ugm-3,170,R,ugm-3
11-01-2008,16:00,0.5,R,mgm-3,23,R,ugm-3 (VCM),75,R,ugm-3,88,R,ugm-3,202,R,ugm-3
11-01-2008,17:00,0.5,R,mgm-3,22,R,ugm-3 (VCM),79,R,ugm-3,94,R,ugm-3,214,R,ugm-3
11-01-2008,18:00,0.5,R,mgm-3,17,R,ugm-3 (VCM),61,R,ugm-3,84,R,ugm-3,178,R,ugm-3
11-01-2008,19:00,0.3,R,mgm-3,21,R,ugm-3 (VCM),51,R,ugm-3,78,R,ugm-3,157,R,ugm-3
11-01-2008,20:00,0.2,R,mgm-3,9,R,ugm-3 (VCM),39,R,ugm-3,63,R,ugm-3,122,R,ugm-3
11-01-2008,21:00,0.2,R,mgm-3,11,R,ugm-3 (VCM),24,R,ugm-3,46,R,ugm-3,82,R,ugm-3
11-01-2008,22:00,0.2,R,mgm-3,10,R,ugm-3 (VCM),23,R,ugm-3,44,R,ugm-3,78,R,ugm-3
11-01-2008,23:00,0.2,R,mgm-3,12,R,ugm-3 (VCM),20,R,ugm-3,44,R,ugm-3,74,R,ugm-3
11-01-2008,24:00,0.1,R,mgm-3,8,R,ugm-3 (VCM),19,R,ugm-3,44,R,ugm-3,73,R,ugm-3
12-01-2008,01:00,0.2,R,mgm-3,11,R,ugm-3 (VCM),26,R,ugm-3,52,R,ugm-3,92,R,ugm-3
12-01-2008,02:00,0.2,R,mgm-3,10,R,ugm-3 (VCM),89,R,ugm-3,73,R,ugm-3,208,R,ugm-3
12-01-2008,03:00,0.1,R,mgm-3,7,R,ugm-3 (VCM),15,R,ugm-3,38,R,ugm-3,61,R,ugm-3
12-01-2008,04:00,0.2,R,mgm-3,8,R,ugm-3 (VCM),134,R,ugm-3,88,R,ugm-3,292,R,ugm-3
12-01-2008,05:00,0.2,R,mgm-3,9,R,ugm-3 (VCM),115,R,ugm-3,76,R,ugm-3,252,R,ugm-3
12-01-2008,06:00,0.2,R,mgm-3,22,R,ugm-3 (VCM),120,R,ugm-3,82,R,ugm-3,265,R,ugm-3
12-01-2008,07:00,0.3,R,mgm-3,33,R,ugm-3 (VCM),143,R,ugm-3,92,R,ugm-3,309,R,ugm-3
12-01-2008,08:00,0.2,R,mgm-3,27,R,ugm-3 (VCM),123,R,ugm-3,88,R,ugm-3,275,R,ugm-3
12-01-2008,09:00,0.3,R,mgm-3,22,R,ugm-3 (VCM),141,R,ugm-3,101,R,ugm-3,317,R,ugm-3
12-01-2008,10:00,0.3,R,mgm-3,30,R,ugm-3 (VCM),151,R,ugm-3,103,R,ugm-3,334,R,ugm-3
12-01-2008,11:00,0.3,R,mgm-3,25,R,ugm-3 (VCM),115,R,ugm-3,96,R,ugm-3,271,R,ugm-3
12-01-2008,12:00,0.3,R,mgm-3,24,R,ugm-3 (VCM),98,R,ugm-3,92,R,ugm-3,241,R,ugm-3
12-01-2008,13:00,0.3,R,mgm-3,16,R,ugm-3 (VCM),94,R,ugm-3,90,R,ugm-3,233,R,ugm-3
12-01-2008,14:00,0.3,R,mgm-3,23,R,ugm-3 (VCM),74,R,ugm-3,82,R,ugm-3,195,R,ugm-3
12-01-2008,15:00,0.3,R,mgm-3,17,R,ugm-3 (VCM),71,R,ugm-3,84,R,ugm-3,193,R,ugm-3
12-01-2008,16:00,0.6,R,mgm-3,21,R,ugm-3 (VCM),99,R,ugm-3,101,R,ugm-3,252,R,ugm-3
12-01-2008,17:00,0.7,R,mgm-3,23,R,ugm-3 (VCM),115,R,ugm-3,107,R,ugm-3,283,R,ugm-3
12-01-2008,18:00,0.7,R,mgm-3,22,R,ugm-3 (VCM),118,R,ugm-3,109,R,ugm-3,288,R,ugm-3
12-01-2008,19:00,0.6,R,mgm-3,22,R,ugm-3 (VCM),94,R,ugm-3,94,R,ugm-3,237,R,ugm-3
12-01-2008,20:00,0.5,R,mgm-3,19,R,ugm-3 (VCM),65,R,ugm-3,80,R,ugm-3,180,R,ugm-3
12-01-2008,21:00,0.3,R,mgm-3,34,R,ugm-3 (VCM),55,R,ugm-3,73,R,ugm-3,157,R,ugm-3
12-01-2008,22:00,0.2,R,mgm-3,17,R,ugm-3 (VCM),30,R,ugm-3,53,R,ugm-3,99,R,ugm-3
12-01-2008,23:00,0.2,R,mgm-3,12,R,ugm-3 (VCM),18,R,ugm-3,42,R,ugm-3,69,R,ugm-3
12-01-2008,24:00,0.2,R,mgm-3,14,R,ugm-3 (VCM),18,R,ugm-3,38,R,ugm-3,65,R,ugm-3
13-01-2008,01:00,0.2,R,mgm-3,9,R,ugm-3 (VCM),16,R,ugm-3,38,R,ugm-3,63,R,ugm-3
13-01-2008,02:00,0.1,R,mgm-3,8,R,ugm-3 (VCM),9,R,ugm-3,23,R,ugm-3,36,R,ugm-3
13-01-2008,03:00,0.1,R,mgm-3,6,R,ugm-3 (VCM),6,R,ugm-3,21,R,ugm-3,31,R,ugm-3
13-01-2008,04:00,0.1,R,mgm-3,5,R,ugm-3 (VCM),6,R,ugm-3,15,R,ugm-3,25,R,ugm-3
13-01-2008,05:00,0.1,R,mgm-3,4,R,ugm-3 (VCM),6,R,ugm-3,13,R,ugm-3,23,R,ugm-3
13-01-2008,06:00,0.1,R,mgm-3,5,R,ugm-3 (VCM),9,R,ugm-3,21,R,ugm-3,34,R,ugm-3
13-01-2008,07:00,0.1,R,mgm-3,7,R,ugm-3 (VCM),14,R,ugm-3,27,R,ugm-3,48,R,ugm-3
13-01-2008,08:00,0.1,R,mgm-3,7,R,ugm-3 (VCM),11,R,ugm-3,27,R,ugm-3,44,R,ugm-3
13-01-2008,09:00,0.1,R,mgm-3,6,R,ugm-3 (VCM),15,R,ugm-3,31,R,ugm-3,53,R,ugm-3
13-01-2008,10:00,0.2,R,mgm-3,13,R,ugm-3 (VCM),16,R,ugm-3,34,R,ugm-3,59,R,ugm-3
13-01-2008,11:00,0.2,R,mgm-3,9,R,ugm-3 (VCM),21,R,ugm-3,38,R,ugm-3,71,R,ugm-3
13-01-2008,12:00,0.2,R,mgm-3,5,R,ugm-3 (VCM),25,R,ugm-3,40,R,ugm-3,78,R,ugm-3